Simultaneous Nadir Overpasses (SNOs) Predictions

Prediction of SNOs between LANDSAT-8 and METOP-A Satellite Orbit:

Table of predicted SNOs for the next 14.0 days since TLE Epoch: 7/25/2020
Index Date (LANDSAT-8) Time (LANDSAT-8) Lat,Lon (LANDSAT-8) SZA (LANDSAT-8 ) Date (METOP-A) Time (METOP-A) Lat,Lon (METOP-A) SZA (METOP-A ) Distance(km) Time Diff (sec)
1 07/25/2020 18:26:10 -81.46, 129.85 115.40 07/25/2020 18:25:51 -81.46, 129.96 115.39 1.99 19
2 07/25/2020 19:15:37 81.45, -62.74 64.58 07/25/2020 19:16:32 81.46, -62.68 64.62 1.20 55
3 07/28/2020 14:00:25 -81.47,-163.68 114.75 07/28/2020 14:00:11 -81.46,-163.52 114.74 2.95 14
4 07/28/2020 14:49:52 81.45, 3.69 65.22 07/28/2020 14:50:52 81.46, 3.81 65.27 1.96 60
5 07/31/2020 09:34:41 -81.47, -97.24 114.07 07/31/2020 09:34:33 -81.46, -97.40 114.09 2.80 8
6 07/31/2020 10:24:08 81.45, 70.10 65.90 07/31/2020 10:25:13 81.46, 70.28 65.96 2.93 65
7 08/03/2020 05:08:57 -81.47, -30.81 113.34 08/03/2020 05:08:54 -81.46, -30.91 113.36 1.76 3
8 08/03/2020 05:58:24 81.45, 136.50 66.62 08/03/2020 05:59:35 81.46, 136.35 66.65 2.74 71
9 08/05/2020 23:53:45 81.46,-132.05 67.41 08/05/2020 23:52:34 81.46,-132.08 67.37 0.62 71
10 08/06/2020 00:43:12 -81.46, 35.60 112.59 08/06/2020 00:43:14 -81.46, 35.58 112.59 0.90 2
